Change the Weather History Date:

Thursday, August 21, 2014

  Actual Average Record
Temperature  
Mean Temperature 82 °F -  
Max Temperature 93 °F 85 °F 100 °F (1955)
Min Temperature 73 °F 61 °F 48 °F (2004)
Cooling Degree Days 17    
Growing Degree Days 32 (Base 50)    
Moisture  
Dew Point 71 °F    
Average Humidity 70    
Maximum Humidity 87    
Minimum Humidity 52    
Precipitation  
Precipitation 0.01 in - - ()
Sea Level Pressure  
Sea Level Pressure 29.76 in    
Wind  
Wind Speed 9 mph (SSW)    
Max Wind Speed 15 mph    
Max Gust Speed -    
Visibility 10 miles    
Events Rain , Thunderstorm    
Averages and records for this station are not official NWS values.
T = Trace of Precipitation, MM = Missing Value Source: NWS Daily Summary

Daily Weather History Graph

Daily Weather History Graph

Search for Another Location

Airport or City:

Trip Planner

Search our weather history database for the weather conditions in past years. The results will help you decide how hot, cold, wet, or windy it might be!

Date:

Astronomy

Aug. 21, 2014 Rise Set
Actual Time 6:39 AM CDT 8:15 PM CDT
Civil Twilight 6:09 AM CDT 8:44 PM CDT
Nautical Twilight 5:34 AM CDT 9:20 PM CDT
Astronomical Twilight 4:56 AM CDT 9:58 PM CDT
Moon 3:09 AM CDT (8/21) 5:46 PM CDT (8/21)
Length of Visible Light 14h 35m
Length of Day
13h 36m
Waning Crescent, 13% of the Moon is Illuminated
Aug 21
Waning Crescent
Aug 25
New
Sep 2
First Quarter
Sep 8
Full
Sep 15
Last Quarter

Hourly Weather History & Observations

Time (CDT) Temp. Heat Index Dew Point Humidity Pressure Visibility Wind Dir Wind Speed Gust Speed Precip Events Conditions
12:54 AM 78.1 °F - 73.0 °F 84% 29.73 in 10.0 mi SE 9.2 mph - N/A   Clear
1:54 AM 78.1 °F - 73.0 °F 84% 29.71 in 10.0 mi SE 10.4 mph - N/A   Clear
2:54 AM 79.0 °F - 71.1 °F 77% 29.70 in 10.0 mi South 10.4 mph - N/A   Clear
3:54 AM 79.0 °F - 69.1 °F 72% 29.71 in 10.0 mi South 11.5 mph - N/A   Scattered Clouds
4:54 AM 78.1 °F - 68.0 °F 71% 29.70 in 10.0 mi South 10.4 mph - N/A   Mostly Cloudy
5:54 AM 78.1 °F - 66.9 °F 68% 29.72 in 10.0 mi SSW 11.5 mph - N/A   Clear
6:54 AM 75.9 °F - 69.1 °F 79% 29.68 in 10.0 mi South 13.8 mph - 0.01 in Rain Light Rain
7:54 AM 73.0 °F - 69.1 °F 87% 29.75 in 10.0 mi Calm Calm - 0.00 in   Clear
8:54 AM 77.0 °F - 70.0 °F 79% 29.77 in 10.0 mi South 3.5 mph - N/A   Clear
9:54 AM 79.0 °F - 69.1 °F 72% 29.76 in 10.0 mi South 4.6 mph - N/A   Clear
10:54 AM 84.9 °F 89.4 °F 70.0 °F 61% 29.76 in 10.0 mi SSW 10.4 mph - N/A   Clear
11:54 AM 88.0 °F 92.9 °F 70.0 °F 55% 29.76 in 10.0 mi SW 15.0 mph - N/A   Clear
12:54 PM 89.1 °F 94.1 °F 70.0 °F 53% 29.76 in 10.0 mi SSW 10.4 mph - N/A   Clear
1:54 PM 91.0 °F 97.6 °F 71.1 °F 52% 29.77 in 10.0 mi WSW 12.7 mph - N/A   Clear
2:54 PM 91.9 °F 99.5 °F 72.0 °F 52% 29.76 in 10.0 mi SW 10.4 mph - N/A   Clear
3:54 PM 91.9 °F 100.7 °F 73.0 °F 54% 29.77 in 10.0 mi SW 8.1 mph - N/A   Clear
4:54 PM 91.0 °F 97.6 °F 71.1 °F 52% 29.78 in 10.0 mi SW 10.4 mph - N/A   Clear
5:54 PM 90.0 °F 96.9 °F 72.0 °F 55% 29.78 in 10.0 mi WSW 9.2 mph - N/A   Clear
6:54 PM 88.0 °F 96.5 °F 73.9 °F 63% 29.78 in 10.0 mi WSW 4.6 mph - N/A   Clear
7:54 PM 84.9 °F 94.1 °F 75.9 °F 74% 29.78 in 10.0 mi SSW 3.5 mph - N/A   Clear
8:54 PM 78.1 °F - 73.9 °F 87% 29.80 in 10.0 mi South 5.8 mph - N/A   Clear
9:54 PM 78.1 °F - 73.0 °F 84% 29.81 in 10.0 mi Calm Calm - N/A   Clear
10:54 PM 75.9 °F - 72.0 °F 87% 29.83 in 10.0 mi Calm Calm - N/A   Partly Cloudy
11:47 PM 79.0 °F - 71.1 °F 77% 29.86 in 10.0 mi West 4.6 mph - N/A Thunderstorm Mostly Cloudy
11:54 PM 79.0 °F - 71.1 °F 77% 29.82 in 10.0 mi SSW 4.6 mph - N/A Thunderstorm Scattered Clouds